Lid_Strength_Index
3 3 3 4 4 5 5 5 5 5 5 5 5 5 4 5 5 4 4 4 4 4 4 4 4 4 4 7 7 2 -2 -2 -1 0 2 3 4 5 6 6 5 7 6 5 5 4 5
3 3 4 4 4 4 4 5 5 5 5 5 5 5 5 5 5 4 4 5 5 5 4 4 4 4 5 9 5 4 1 -0 0 1 2 2 3 3 5 5 6 5 5 5 5 5 4
4 4 4 4 4 4 4 5 5 5 5 5 5 5 5 5 5 5 5 5 5 5 3 3 4 4 6 7 5 4 1 0 0 1 2 1 2 4 4 6 4 5 7 6 6 5 5
4 4 4 4 4 4 4 5 5 5 4 4 4 5 5 5 5 5 6 6 5 3 3 4 3 4 6 4 3 3 2 1 0 0 1 1 1 3 4 4 5 6 6 9 6 5 5
4 4 4 4 4 4 4 4 5 4 4 4 4 4 5 5 5 6 6 6 4 3 3 3 4 5 7 4 7 5 1 2 1 1 1 1 2 4 4 6 8 7 9 8 7 5 5
4 4 4 4 4 4 4 4 4 4 4 4 5 5 5 5 5 6 6 6 3 3 3 3 4 7 6 7 5 6 2 2 3 3 3 4 4 6 6 7 10 8 8 7 8 6 6
4 4 4 5 5 4 5 5 5 5 5 5 5 5 5 5 6 6 6 6 6 6 8 6 5 6 6 5 4 6 4 2 3 4 7 5 7 8 7 6 6 6 7 8 7 6 6
5 4 5 5 5 5 5 5 5 5 5 5 5 5 5 5 6 6 6 8 10 10 12 8 9 7 4 5 6 6 4 6 5 7 6 7 9 6 6 6 6 7 8 8 7 7 7
5 5 5 5 5 5 5 5 5 5 5 5 5 5 6 6 6 6 7 8 6 7 11 9 8 8 8 6 7 7 6 6 7 7 8 8 7 6 7 7 7 7 8 7 8 7 7
5 5 5 5 5 5 5 5 5 5 5 5 5 6 6 6 7 7 8 6 6 7 12 10 9 8 7 6 8 5 7 6 7 8 8 8 6 7 7 8 7 8 6 7 8 9 10
5 6 5 5 5 5 5 5 5 5 5 5 5 6 6 7 7 8 7 6 6 7 16 9 9 6 6 7 6 7 5 7 8 8 7 9 8 8 8 8 7 8 6 7 8 9 9
5 5 5 5 5 5 5 5 5 5 5 5 5 6 6 6 6 6 6 6 7 13 16 10 9 10 9 8 7 7 7 7 7 8 8 8 6 7 7 6 7 6 7 7 7 9 11
5 5 5 5 5 4 4 3 3 2 2 3 4 5 5 5 8 5 5 7 13 15 10 11 10 9 9 9 8 8 8 9 9 11 11 9 8 7 7 8 6 7 8 11 11 11 12
5 5 4 3 3 2 1 1 1 0 0 1 2 3 2 2 2 3 5 10 16 12 11 10 10 10 10 8 9 8 9 10 8 8 9 11 12 8 7 8 8 8 8 11 13 12 11
4 3 2 2 2 1 0 -0 0 0 1 1 2 1 1 0 -1 -0 5 11 12 11 11 11 10 11 10 9 9 9 9 9 8 7 10 10 10 7 7 7 7 8 9 7 9 9 11
3 2 2 1 1 0 -0 0 0 1 1 2 2 2 2 -1 -1 1 6 9 8 7 9 9 11 10 12 11 10 9 9 9 8 7 7 8 10 8 8 7 7 7 6 10 9 12 13
2 2 1 0 0 0 0 1 1 1 1 2 2 4 1 -1 -0 4 8 8 7 5 6 9 9 10 10 11 10 10 10 9 9 8 8 8 8 9 8 9 9 9 9 8 8 9 12
2 1 0 0 0 0 0 1 1 2 2 2 3 7 1 -1 5 5 7 7 6 6 5 6 7 9 9 9 10 10 10 10 9 8 9 8 8 10 10 8 7 7 8 8 11 11 10
1 0 0 0 1 0 1 1 1 2 2 3 5 5 1 1 8 8 6 6 6 6 7 8 9 7 7 9 11 10 10 9 9 8 8 7 10 11 10 9 8 9 8 8 8 8 10
1 1 1 0 0 0 1 1 2 2 3 3 5 8 4 3 3 7 8 8 8 5 7 6 9 7 8 8 8 10 10 10 9 9 8 9 8 9 11 9 8 10 9 8 9 10 10
0 0 0 1 0 0 1 2 2 2 3 3 5 8 6 8 7 6 7 7 8 9 6 5 9 10 11 11 9 10 10 10 9 9 9 9 10 9 9 10 10 9 9 9 9 9 10
0 0 0 0 0 0 1 2 2 2 3 4 7 8 5 6 6 7 7 8 8 8 8 8 10 9 8 12 11 11 10 10 11 9 9 9 11 10 11 10 11 11 10 9 9 8 8
0 0 0 0 -0 -0 0 1 2 2 3 5 3 4 5 7 7 8 8 7 7 7 6 6 6 8 8 8 7 7 7 9 9 11 10 11 11 11 12 10 11 12 10 9 9 8 8
0 0 0 0 0 0 0 1 2 2 3 3 4 5 8 10 9 8 7 7 7 7 8 6 5 7 5 4 4 5 6 7 9 10 10 11 11 11 12 11 15 9 6 7 9 8 7
0 0 0 0 0 0 0 0 1 2 2 4 3 5 8 10 8 7 7 7 6 5 6 6 5 4 3 5 8 9 9 9 10 10 10 10 11 12 13 13 11 9 9 9 9 9 7
1 0 0 0 0 0 0 0 1 2 2 3 4 3 6 10 9 7 7 6 8 8 7 6 4 2 3 6 9 12 11 10 11 10 10 10 10 12 12 14 15 10 7 7 7 10 6
1 1 0 0 0 0 1 1 2 2 2 3 4 4 6 10 7 6 8 8 5 7 8 6 6 5 4 9 10 11 11 8 11 11 11 12 13 14 14 14 12 8 7 6 11 11 6
1 1 1 1 1 0 1 2 2 2 2 3 4 4 6 9 8 6 5 6 6 6 9 6 7 6 6 9 8 9 10 8 9 8 9 10 12 13 13 14 16 8 8 10 6 5 5
1 1 1 1 1 1 1 2 3 2 2 2 5 4 4 7 7 4 4 3 3 4 5 6 6 6 6 10 8 8 10 8 9 12 6 11 9 10 10 12 8 8 8 6 6 6 5